Tracking 30995 objects as of 7-Jul-2025
HD Live streaming from Space Station
objects crossing your sky now

STARLINK-32520

Track STARLINK-32520 now!
10-day predictions
STARLINK-32520 is classified as:


NORAD ID: 62021
Int'l Code: 2024-213P
Perigee: 481.7 km
Apogee: 483.0 km
Inclination: 53.2 °
Period: 94.1 minutes
Semi major axis: 6853 km
RCS: Unknown
Launch date: November 18, 2024
Source: United States (US)
Launch site: AIR FORCE WESTERN TEST RANGE (AFWTR)
Your satellite tracking list
NOAA 14 DEB
Track 1 satellite(s)




NASA's NSSDC Master Catalog

Two Line Element Set (TLE):
1 62021U 24213P   25187.40908755  .00019742  00000-0  67675-3 0  9991
2 62021  53.1570 232.3944 0000964  60.3740 299.7356 15.30206736 35440
Source of the keplerian elements: AFSPC